Temp
8 6 5 5 5 5 4 4 4 3 3 3 3 2 2 2 2 0 0 -0 -0 -0 0 0 1 1 2
6 5 5 5 4 4 4 3 3 3 3 3 2 2 2 2 0 -0 -1 -1 -1 -1 -1 -0 0 0 0
5 5 5 4 3 3 3 3 2 2 3 2 2 2 1 0 0 -0 0 0 -1 -1 -1 -1 -1 -1 -1
5 4 3 3 3 3 2 2 2 1 1 1 1 1 1 1 0 0 -0 -2 -2 -1 -2 -2 -2 -2 -1
3 3 2 2 2 2 2 2 2 1 1 1 1 -0 -0 -1 -1 -2 -1 -2 -2 -2 -2 -2 -2 -2 -2
3 3 2 2 2 2 2 2 2 1 0 0 0 -0 -1 -1 -2 -2 -2 -3 -3 -3 -3 -3 -3 -3 -2
5 4 3 3 2 2 2 2 2 -0 -0 -0 -0 -1 -1 -1 -2 -2 -2 -3 -3 -3 -3 -3 -3 -3 -3
5 5 5 3 3 3 1 1 0 -1 -1 -1 -1 -1 -1 -1 -2 -2 -2 -3 -3 -3 -3 -3 -3 -3 -3
4 4 3 2 2 1 0 -0 0 -1 -2 -3 -2 -2 -2 -2 -2 -3 -3 -3 -3 -3 -3 -3 -3 -4 -4
1 1 1 0 0 0 0 -0 0 -1 -3 -3 -3 -4 -4 -3 -3 -3 -3 -4 -4 -4 -4 -4 -4 -4 -5
-0 -1 -1 -1 -1 -1 -2 -2 -2 -2 -3 -4 -5 -5 -4 -5 -4 -3 -4 -4 -4 -4 -5 -4 -4 -5 -5
-2 -3 -3 -3 -3 -3 -3 -3 -3 -4 -4 -5 -5 -6 -6 -6 -6 -5 -5 -5 -6 -6 -5 -5 -6 -5 -5
-4 -3 -4 -4 -4 -4 -4 -4 -4 -4 -5 -5 -6 -6 -6 -6 -7 -7 -6 -6 -6 -5 -6 -6 -6 -6 -6
-3 -4 -4 -5 -5 -5 -6 -5 -6 -6 -6 -6 -6 -7 -7 -7 -7 -7 -7 -7 -6 -6 -6 -7 -7 -7 -7
-4 -5 -5 -5 -6 -6 -6 -6 -6 -6 -6 -6 -7 -7 -7 -8 -8 -7 -7 -7 -7 -7 -7 -8 -7 -7 -7
-5 -5 -5 -6 -6 -6 -6 -7 -6 -7 -7 -7 -7 -8 -8 -7 -6 -7 -7 -7 -7 -8 -8 -8 -8 -5 -5
-5 -5 -6 -6 -6 -7 -7 -7 -7 -7 -7 -7 -8 -8 -9 -11 -8 -7 -7 -7 -8 -9 -8 -8 -8 -6 -5
Height
859 862 866 869 872 875 875 878 878 879 881 880 882 882 883 881 878 878 877 875 873 872 870 869 867 865 864
855 858 862 866 869 873 873 876 877 877 877 877 878 879 879 878 876 874 872 870 868 868 867 866 864 862 859
852 856 860 863 866 871 872 873 875 874 874 876 875 876 876 874 872 871 869 868 865 864 865 863 860 858 855
847 852 857 860 864 868 869 869 871 871 871 872 872 873 874 871 870 868 866 864 863 863 862 859 856 854 851
845 849 853 856 859 862 865 866 867 868 869 869 870 871 870 868 867 865 863 861 861 860 858 855 853 850 847
840 843 847 850 854 857 860 863 866 864 865 867 868 867 866 866 864 861 860 859 859 857 854 852 849 846 842
835 839 843 847 851 855 857 858 861 863 865 865 864 864 863 862 861 859 858 858 856 854 851 848 845 842 838
835 837 841 844 849 851 855 859 861 862 863 863 863 862 860 858 858 857 856 855 853 850 847 844 840 837 833
833 836 839 843 846 849 853 856 859 861 861 862 861 858 856 855 856 856 854 852 850 847 843 839 835 832 828
832 836 839 843 846 850 852 855 857 859 860 861 861 859 856 854 854 852 850 848 846 842 838 835 832 828 823
832 837 840 843 846 849 851 854 855 857 858 858 859 859 859 856 850 848 847 843 840 836 834 831 829 826 819
833 838 840 843 846 849 850 852 854 856 856 856 857 858 858 856 852 847 844 840 838 834 832 829 824 821 817
833 837 840 843 846 848 850 852 853 854 854 854 854 855 855 853 851 845 842 836 834 833 830 825 819 815 806
831 835 839 843 846 848 850 851 853 853 853 853 853 853 851 850 848 842 840 838 833 831 827 822 815 810 804
830 835 839 843 846 848 850 851 852 852 853 853 852 850 848 846 842 839 836 834 832 827 823 816 810 804 798
830 835 838 842 845 847 849 850 851 851 852 852 850 847 844 840 838 836 834 832 829 824 820 813 803 796 792
830 834 838 841 844 846 848 849 850 851 851 850 850 848 846 843 836 835 834 830 825 820 816 811 803 790 785
Wind_Speed
16 16 20 19 17 16 17 11 11 11 9 6 8 8 9 9 10 11 11 11 12 14 16 17 17 17 18
15 16 21 20 17 17 14 11 9 11 10 8 10 10 10 11 12 11 10 12 14 15 15 15 15 17 20
11 16 19 20 16 15 13 11 11 12 8 10 12 11 11 13 12 11 14 16 13 12 12 13 15 19 21
15 20 18 20 18 17 14 13 9 8 9 9 11 11 14 12 12 13 13 13 10 9 12 15 17 19 21
18 18 17 22 22 19 14 13 10 11 9 9 9 11 11 10 9 11 14 9 8 11 15 17 18 20 22
17 20 20 23 22 19 16 11 5 10 8 10 11 11 8 11 12 13 9 6 10 14 18 18 21 21 24
27 22 18 20 22 19 16 12 6 7 6 7 9 7 7 10 10 13 6 8 13 16 18 20 22 23 24
19 17 14 17 17 14 14 12 8 6 5 3 5 8 10 12 9 11 8 14 16 16 19 21 22 23 25
15 13 13 17 17 16 14 11 7 5 4 3 3 12 13 8 4 7 13 14 15 18 21 22 23 25 27
17 16 16 15 14 10 11 11 6 4 6 1 3 6 7 4 6 15 17 14 17 20 22 22 23 27 29
19 16 14 12 11 10 10 10 8 3 6 2 2 3 4 8 17 13 12 23 26 23 22 24 25 28 31
19 14 13 11 10 9 8 8 8 9 5 4 3 2 6 8 9 14 26 23 21 24 22 26 29 26 26
17 15 13 12 11 9 7 4 3 3 3 4 7 7 8 11 16 23 20 22 19 15 27 27 32 33 33
18 17 15 13 10 8 6 4 5 1 1 2 5 7 13 16 17 25 20 12 22 27 27 28 33 30 30
19 17 15 13 10 8 6 5 5 3 1 4 8 12 15 18 20 17 17 20 24 27 29 29 31 32 30
18 17 16 13 10 8 5 5 5 2 1 5 10 14 14 9 11 16 18 21 26 29 25 26 32 36 33
18 16 15 13 10 7 5 5 2 0 3 7 8 9 10 2 12 8 13 28 28 26 24 25 30 41 37
Wind_Direction
185 197 198 191 204 185 203 198 212 218 237 261 272 284 287 292 306 307 313 315 316 317 317 316 317 318 315
174 189 189 192 205 195 201 196 200 237 240 258 268 273 276 292 297 305 301 308 312 313 314 314 314 313 317
156 186 186 185 191 197 201 196 208 231 253 262 263 265 277 291 296 297 303 309 316 315 313 312 311 313 315
175 169 177 183 189 187 192 205 215 231 241 239 254 265 288 289 293 298 312 316 317 309 311 316 315 313 313
160 163 172 177 192 194 197 199 209 221 244 249 254 267 279 282 299 298 314 310 298 303 314 316 313 314 312
170 174 184 193 190 187 180 165 196 247 219 236 245 265 271 285 291 303 307 299 302 307 311 312 313 314 312
191 184 176 185 186 183 188 196 196 197 210 259 246 265 273 288 295 305 278 302 307 313 315 315 314 314 311
191 189 197 188 191 195 183 175 185 220 216 251 249 284 285 305 296 300 280 302 311 312 315 317 318 318 313
172 171 170 175 182 172 168 163 176 192 233 233 286 310 310 311 286 306 311 312 313 314 317 320 322 320 312
142 151 158 153 154 170 183 179 163 164 228 211 302 345 324 299 279 317 321 326 320 320 320 321 322 320 314
148 147 147 154 166 172 167 166 162 145 201 249 254 318 266 301 309 331 327 317 325 327 325 319 317 318 313
153 150 151 154 156 155 158 166 171 171 207 260 245 269 293 297 287 300 321 326 322 318 315 313 315 312 307
146 150 160 164 163 160 159 164 173 185 211 238 248 260 268 272 281 296 317 321 327 315 311 311 310 310 310
150 161 166 158 152 158 155 149 133 83 336 281 292 290 288 284 285 290 304 305 308 310 309 306 310 308 305
163 162 156 156 157 160 160 139 144 157 247 306 303 305 300 298 288 296 306 309 310 309 312 309 310 314 313
160 158 157 159 163 161 156 140 142 156 270 303 313 330 331 328 273 287 302 301 307 313 309 305 307 323 324
159 161 161 157 162 160 152 142 141 235 308 315 326 333 329 300 301 296 296 308 315 308 310 305 299 308 321